Weather History for KCGS - April, 2013

Change the Weather History Date:

Tuesday, April 9, 2013

  Actual Average Record
Temperature  
Mean Temperature 72 °F -  
Max Temperature 88 °F 63 °F 90 °F (1991)
Min Temperature 56 °F 39 °F 26 °F (1977)
Cooling Degree Days 7    
Growing Degree Days 22 (Base 50)    
Moisture  
Dew Point 53 °F    
Average Humidity 49    
Maximum Humidity 86    
Minimum Humidity 29    
Precipitation  
Precipitation 0.00 in - - ()
Sea Level Pressure  
Sea Level Pressure 30.00 in    
Wind  
Wind Speed 4 mph (SW)    
Max Wind Speed 12 mph    
Max Gust Speed 16 mph    
Visibility 10 miles    
Events      
Averages and records for this station are not official NWS values.
T = Trace of Precipitation, MM = Missing Value Source: NWS Daily Summary

Daily Weather History Graph

Daily Weather History Graph

Search for Another Location

Airport or City:

Trip Planner

Search our weather history database for the weather conditions in past years. The results will help you decide how hot, cold, wet, or windy it might be!

Date:

Astronomy

Apr. 09, 2013 Rise Set
Actual Time 6:39 AM EDT 7:39 PM EDT
Civil Twilight 6:12 AM EDT 8:06 PM EDT
Nautical Twilight 5:40 AM EDT 8:39 PM EDT
Astronomical Twilight 5:06 AM EDT 9:12 PM EDT
Moon 6:00 AM EDT (4/9) 7:12 PM EDT (4/9)
Length of Visible Light 13h 54m
Length of Day
12h 59m
Waning Crescent, 1% of the Moon is Illuminated
Apr 9
Waning Crescent
Apr 10
New
Apr 18
First Quarter
Apr 25
Full
May 2
Last Quarter

Hourly Weather History & Observations

Time (EDT) Temp. Heat Index Dew Point Humidity Pressure Visibility Wind Dir Wind Speed Gust Speed Precip Events Conditions
12:15 AM 73.9 °F - 51.8 °F 46% 29.97 in 10.0 mi South 5.8 mph - N/A   Clear
12:40 AM 73.9 °F - 51.8 °F 46% 29.98 in 10.0 mi SSW 5.8 mph - N/A   Clear
1:00 AM 73.4 °F - 52.0 °F 47% 29.98 in 10.0 mi SSW 3.5 mph - N/A   Clear
1:20 AM 73.0 °F - 52.2 °F 48% 29.98 in 10.0 mi SSW 3.5 mph - N/A   Clear
1:40 AM 72.7 °F - 52.3 °F 49% 29.98 in 10.0 mi SSW 4.6 mph - N/A   Clear
2:00 AM 72.5 °F - 52.5 °F 49% 29.98 in 10.0 mi SSW 4.6 mph - N/A   Clear
2:20 AM 71.8 °F - 52.7 °F 51% 29.98 in 10.0 mi SSW 3.5 mph - N/A   Clear
2:40 AM 70.9 °F - 52.7 °F 53% 29.98 in 10.0 mi South 3.5 mph - N/A   Clear
3:00 AM 70.3 °F - 52.9 °F 54% 29.98 in 10.0 mi Calm Calm - N/A   Clear
3:20 AM 69.4 °F - 52.9 °F 56% 29.98 in 10.0 mi Calm Calm - N/A   Clear
3:40 AM 68.4 °F - 53.1 °F 58% 29.98 in 10.0 mi Calm Calm - N/A   Clear
4:00 AM 62.2 °F - 53.6 °F 73% 29.99 in 10.0 mi Calm Calm - N/A   Clear
4:20 AM 60.4 °F - 53.2 °F 77% 29.99 in 10.0 mi Calm Calm - N/A   Clear
4:40 AM 59.9 °F - 53.6 °F 80% 30.00 in 10.0 mi Calm Calm - N/A   Clear
5:00 AM 60.4 °F - 53.1 °F 77% 30.01 in 10.0 mi Calm Calm - N/A   Clear
5:20 AM 60.1 °F - 53.1 °F 78% 30.02 in 10.0 mi Calm Calm - N/A   Clear
5:40 AM 57.9 °F - 52.3 °F 82% 30.02 in 10.0 mi Calm Calm - N/A   Clear
6:00 AM 56.3 °F - 51.8 °F 85% 30.03 in 10.0 mi Calm Calm - N/A   Clear
6:20 AM 57.0 °F - 52.0 °F 83% 30.04 in 10.0 mi Calm Calm - N/A   Clear
6:40 AM 57.0 °F - 52.9 °F 86% 30.04 in 10.0 mi Calm Calm - N/A   Clear
7:00 AM 57.4 °F - 52.3 °F 83% 30.05 in 10.0 mi Calm Calm - N/A   Clear
7:20 AM 57.4 °F - 52.2 °F 83% 30.06 in 10.0 mi Calm Calm - N/A   Clear
7:40 AM 59.9 °F - 54.3 °F 82% 30.07 in 10.0 mi Calm Calm - N/A   Clear
8:00 AM 64.6 °F - 55.4 °F 72% 30.07 in 10.0 mi Calm Calm - N/A   Clear
8:20 AM 68.9 °F - 54.9 °F 61% 30.07 in 10.0 mi Calm Calm - N/A   Clear
8:40 AM 70.9 °F - 55.6 °F 58% 30.07 in 10.0 mi Calm Calm - N/A   Clear
9:00 AM 72.9 °F - 54.9 °F 53% 30.07 in 10.0 mi SW 3.5 mph - N/A   Clear
9:20 AM 74.5 °F - 54.9 °F 50% 30.07 in 10.0 mi SW 3.5 mph - N/A   Clear
9:40 AM 76.6 °F - 54.7 °F 46% 30.07 in 10.0 mi WNW 9.2 mph - N/A   Clear
10:00 AM 77.2 °F - 54.3 °F 45% 30.07 in 10.0 mi Calm Calm - N/A   Clear
10:20 AM 78.6 °F - 54.7 °F 43% 30.08 in 10.0 mi West 9.2 mph - N/A   Clear
10:40 AM 78.8 °F - 54.7 °F 43% 30.07 in 10.0 mi NW 11.5 mph - N/A   Clear
11:00 AM 80.4 °F 80.4 °F 55.0 °F 42% 30.07 in 10.0 mi West 10.4 mph - N/A   Clear
11:20 AM 80.2 °F 80.3 °F 55.0 °F 42% 30.08 in 10.0 mi NW 9.2 mph - N/A   Clear
11:40 AM 81.7 °F 81.2 °F 54.9 °F 40% 30.07 in 10.0 mi West 8.1 mph 16.1 mph N/A   Clear
12:00 PM 82.8 °F 82.0 °F 55.4 °F 39% 30.07 in 10.0 mi West 9.2 mph - N/A   Clear
12:20 PM 82.4 °F 81.7 °F 55.2 °F 39% 30.06 in 10.0 mi West 6.9 mph - N/A   Clear
12:40 PM 82.8 °F 82.0 °F 55.4 °F 39% 30.06 in 10.0 mi NW 6.9 mph - N/A   Clear
1:00 PM 83.3 °F 82.5 °F 56.1 °F 39% 30.05 in 10.0 mi West 9.2 mph - N/A   Clear
1:20 PM 83.5 °F 82.4 °F 54.7 °F 37% 30.04 in 10.0 mi West 10.4 mph 16.1 mph N/A   Clear
1:40 PM 83.8 °F 82.6 °F 54.3 °F 36% 30.04 in 10.0 mi West 6.9 mph 16.1 mph N/A   Clear
2:00 PM 84.4 °F 82.9 °F 54.1 °F 35% 30.03 in 10.0 mi West 8.1 mph - N/A   Clear
2:20 PM 84.6 °F 83.2 °F 55.0 °F 36% 30.02 in 10.0 mi WNW 8.1 mph - N/A   Clear
2:40 PM 85.3 °F 83.8 °F 54.7 °F 35% 30.02 in 10.0 mi WNW 8.1 mph - N/A   Clear
3:00 PM 86.0 °F 84.3 °F 54.3 °F 34% 30.00 in 10.0 mi SSW 4.6 mph 16.1 mph N/A   Clear
3:20 PM 86.2 °F - 52.9 °F 32% 29.99 in 10.0 mi SSW 6.9 mph - N/A   Clear
4:20 PM 87.1 °F 85.1 °F 53.6 °F 32% 29.97 in 10.0 mi Calm Calm - N/A   Clear
4:40 PM 88.0 °F - 52.0 °F 29% 29.96 in 10.0 mi South 5.8 mph - N/A   Scattered Clouds
5:00 PM 88.0 °F - 52.5 °F 30% 29.96 in 10.0 mi SW 5.8 mph - N/A   Clear
5:20 PM 87.3 °F - 52.5 °F 30% 29.96 in 10.0 mi South 6.9 mph - N/A   Clear
5:40 PM 87.1 °F - 52.3 °F 30% 29.96 in 10.0 mi South 4.6 mph - N/A   Clear
6:00 PM 87.3 °F - 52.2 °F 30% 29.96 in 10.0 mi SSW 6.9 mph - N/A   Clear
6:20 PM 86.9 °F - 51.8 °F 30% 29.95 in 10.0 mi South 6.9 mph - N/A   Clear
6:40 PM 87.1 °F - 51.8 °F 30% 29.95 in 10.0 mi South 6.9 mph - N/A   Clear
7:00 PM 86.2 °F - 51.8 °F 31% 29.94 in 10.0 mi South 6.9 mph - N/A   Clear
7:20 PM 85.3 °F - 52.0 °F 32% 29.95 in 10.0 mi South 4.6 mph - N/A   Clear
7:40 PM 84.4 °F - 52.0 °F 33% 29.95 in 10.0 mi South 4.6 mph - N/A   Clear
8:00 PM 83.5 °F - 52.0 °F 34% 29.96 in 10.0 mi South 3.5 mph - N/A   Clear
8:20 PM 83.1 °F - 52.0 °F 34% 29.96 in 10.0 mi South 3.5 mph - N/A   Clear
8:40 PM 82.0 °F - 52.0 °F 35% 29.96 in 10.0 mi South 3.5 mph - N/A   Clear
9:00 PM 81.5 °F - 52.2 °F 36% 29.96 in 10.0 mi South 3.5 mph - N/A   Clear
9:20 PM 79.3 °F - 52.3 °F 39% 29.96 in 10.0 mi Calm Calm - N/A   Clear
9:40 PM 78.3 °F - 53.1 °F 41% 29.96 in 10.0 mi Calm Calm - N/A   Clear
10:00 PM 73.4 °F - 54.9 °F 52% 29.96 in 10.0 mi Calm Calm - N/A   Clear
10:20 PM 71.4 °F - 55.0 °F 56% 29.96 in 10.0 mi Calm Calm - N/A   Clear
10:40 PM 70.3 °F - 55.6 °F 59% 29.95 in 10.0 mi Calm Calm - N/A   Clear
11:00 PM 76.3 °F - 53.4 °F 45% 29.95 in 10.0 mi South 3.5 mph - N/A   Clear
11:20 PM 78.1 °F - 52.9 °F 41% 29.94 in 10.0 mi South 3.5 mph - N/A   Clear
11:40 PM 77.9 °F - 52.9 °F 42% 29.93 in 10.0 mi SSW 3.5 mph - N/A   Clear